Regional Weather Roundup
Issued by NWS

Home | Current Version | Previous Version | Text Only | Print | Product List | Glossary Off
Versions: 1 2 3 4 5 6 7 8 9 10 11 12 13 14 15 16 17 18 19 20 21 22 23 24 25 26 27 28 29 30 31 32 33 34 35 36 37 38 39 40 41 42 43 44 45 46 47 48 49 50

000
ASUS45 KBOU 291307
RWRCO

WEATHER ROUNDUP FOR COLORADO
NATIONAL WEATHER SERVICE DENVER/BOULDER CO
700 AM MDT FRI JUL 29 2016

NOTE: "FAIR" INDICATES FEW OR NO CLOUDS BELOW 12000 FEET WITH NO
SIGNIFICANT WEATHER AND/OR OBSTRUCTIONS TO VISIBILITY.

COZ001>005-013-030-031-291400-
...NORTHWEST COLORADO...

CITY           SKY/WX    TMP DP  RH WIND       PRES   REMARKS
CRAIG          FAIR      48  39  71 CALM      30.26R
HAYDEN         FAIR      52  34  50 E8        30.27R
MEEKER         FAIR      48  37  65 E3        30.27R
MOUNT WERNER   NOT AVBL
STEAMBOAT SPGS FAIR      46  37  73 CALM      30.29R
WALDEN         FAIR      37  34  87 SE3       30.38S
$$

COZ006>008-011-291400-
...WEST CENTRAL VALLEYS...

CITY           SKY/WX    TMP DP  RH WIND       PRES   REMARKS
GRAND JUNCTION FAIR      66  35  31 E6        30.09R
MONTROSE       FAIR      66  34  30 SE12      30.20R
EAGLE          CLEAR     50  34  53 CALM      30.30R
RIFLE          FAIR      57  34  41 CALM      30.19R
DELTA          NOT AVBL
NUCLA          NOT AVBL
$$

COZ017>023-064>068-291400-
...SOUTHWEST COLORADO...

CITY           SKY/WX    TMP DP  RH WIND       PRES   REMARKS
DURANGO        FAIR      57  38  48 N6        30.26R
CORTEZ         FAIR      61  39  44 MISG      30.19R
PAGOSA SPRINGS FAIR      55  38  53 CALM      30.35R
TELLURIDE      FAIR      55  32  41 SE3       30.48R
WOLF CREEK PAS FAIR      52  34  50 SW15      30.69R
$$

COZ009-010-012-014-032>034-037-058>063-291400-
...CENTRAL COLORADO...

CITY           SKY/WX    TMP DP  RH WIND       PRES   REMARKS
ASPEN          FAIR      50  35  56 S8        30.35R
BUENA VISTA    FAIR      53  40  61 W6        30.37F
COPPER MTN     FAIR      54  30  40 W8        30.64S
BERTHOUD PASS  FAIR      45  32  61 NW17G23   30.65S
COTTONWOOD PAS FAIR      55  39  54 W5        30.48F
GUNNISON       FAIR      46  30  53 CALM      30.40R
KREMMLING      FAIR      43  34  70 CALM      30.36R
LEADVILLE      FAIR      45  41  86 NE3       30.49R
MONARCH PASS   FAIR      50  32  50 SW13      30.74S
SALIDA         MOCLDY    55  49  81 W5        30.42S
SUNLIGHT       FAIR      57  27  30 MISG      30.59R
WILKERSON PASS FAIR      50  43  76 W6        30.60S
$$

COZ069>075-291400-
...SAN LUIS VALLEY/SANGRE DE CRISTO MOUNTAINS...

CITY           SKY/WX    TMP DP  RH WIND       PRES   REMARKS
ALAMOSA        FAIR      55  45  68 N6        30.32R
LA VETA PASS   FAIR      54  41  62 S9        30.50R
SAGUACHE       FAIR      54  34  47 N10       30.35S
$$

COZ035-036-038>040-291400-
...NORTHERN COLORADO FRONT RANGE...

CITY           SKY/WX    TMP DP  RH WIND       PRES   REMARKS
DENVER INTL AP FAIR      61  58  90 SE7       30.20R
DMNS CITY PARK   N/A     64  57  78 NW2       30.19F
AURORA         PTSUNNY   61  61  99 S7        30.21S
FRONT RANGE AP NOT AVBL
ERIE MUNI ARPT CLOUDY    67  59  76 CALM      30.19F
BOULDER MUN AP NOT AVBL
CENTENNIAL     PTSUNNY   63  58  83 SW3       30.22R
BROOMFIELD     PTSUNNY   64  59  82 CALM      30.22S
LONGMONT       NOT AVBL
$$

COZ041-046-047-076>085-087-088-291400-
...PIKES PEAK/PALMER DIVIDE AND SOUTHERN FOOTHILLS...

CITY           SKY/WX    TMP DP  RH WIND       PRES   REMARKS
COLO. SPRINGS  FAIR      60  56  86 E5        30.26S
A. F. ACADEMY  PTSUNNY   58  58  98 NW1       30.26S
SCHRIEVER AFB  NOT AVBL
ELLICOTT       NOT AVBL
FALCON         NOT AVBL
FORT CARSON    FAIR      59  57  93 E3        30.22S
LIMON          FAIR      59  57  93 CALM      30.21S
MONUMENT HILL  FAIR      54  54 100 S7        30.30S
TRINIDAD       NOT AVBL
$$

COZ042>045-048>051-090-091-291400-
...NORTHEAST COLORADO...

CITY           SKY/WX    TMP DP  RH WIND       PRES   REMARKS
GREELEY ARPT   PTSUNNY   63  59  88 CALM      30.19S
AKRON          PTSUNNY   62  57  83 NE3       30.18R
BURLINGTON     FAIR      60  57  89 CALM      30.16S FOG
WRAY           FAIR      63  63 100 N3        30.14R
STERLING       NOT AVBL
HOLYOKE        NOT AVBL
FORT MORGAN    NOT AVBL
$$

COZ086-089-092>099-291400-
...SOUTHEAST COLORADO...

CITY           SKY/WX    TMP DP  RH WIND       PRES   REMARKS
PUEBLO         FAIR      65  60  84 NE7       30.17S
LA JUNTA       FAIR      63  61  93 E7        30.17R
LAMAR          CLOUDY    64  61  90 E5        30.15R
SPRINGFIELD      N/A     62  59  90 NE7       30.18R
$$



USA.gov is the U.S. government's official web portal to all federal, state and local government web resources and services.